When you browse on this site, cookies collect data to enhance your experience and personalize the content and advertising you see.
Visit our Privacy Policy to learn more. By continuing to use the site, you agree to this use of cookies and data.
  • En España
  • Lista de países
  • Para 7 días
  • Temperatura del agua
  • El tiempo en el mapa
  • Informadores
  • user-avatar
    Iniciar sesión

    Tiempo cada hora Dzhezkazgan

    Hoy, 14 Noviembre, Jueves

    Tiempo Temperatura Precipitaciones Viento Presión Humedad
    00:00 +5°C° 0 mm 2 mps 749 mmHg 28%
    01:00 +4°C° 0 mm 2 mps 749 mmHg 28%
    02:00 +3°C° 0 mm 3 mps 749 mmHg 29%
    03:00 +3°C° 0 mm 3 mps 749 mmHg 29%
    04:00 +3°C° 0 mm 3 mps 749 mmHg 30%
    05:00 +3°C° 0 mm 4 mps 749 mmHg 35%
    06:00 +1°C° 0 mm 4 mps 749 mmHg 39%
    07:00 +1°C° 0 mm 5 mps 749 mmHg 44%
    08:00 +3°C° 0 mm 5 mps 749 mmHg 39%
    09:00 +4°C° 0 mm 6 mps 749 mmHg 35%
    10:00 +6°C° 0 mm 7 mps 749 mmHg 31%
    11:00 +8°C° 0 mm 6 mps 749 mmHg 27%
    12:00 +9°C° 0 mm 5 mps 749 mmHg 23%
    13:00 +10°C° 0 mm 5 mps 748 mmHg 19%
    14:00 +10°C° 0 mm 4 mps 749 mmHg 20%
    15:00 +9°C° 0 mm 3 mps 749 mmHg 22%
    16:00 +7°C° 0 mm 2 mps 749 mmHg 23%
    17:00 +8°C° 0 mm 1 mps 749 mmHg 25%
    18:00 +7°C° 0 mm 1 mps 749 mmHg 26%
    19:00 +5°C° 0 mm 0 mps 749 mmHg 28%
    20:00 +6°C° 0 mm 1 mps 749 mmHg 28%
    21:00 +6°C° 0 mm 1 mps 749 mmHg 27%
    22:00 +6°C° 0 mm 1 mps 750 mmHg 27%
    23:00 +5°C° 0 mm 2 mps 750 mmHg 28%

    Mañana, 15 Noviembre, Viernes

    Tiempo Temperatura Precipitaciones Viento Presión Humedad
    00:00 +4°C° 0 mm 2 mps 750 mmHg 29%
    01:00 +4°C° 0 mm 2 mps 750 mmHg 29%
    02:00 +4°C° 0 mm 2 mps 750 mmHg 30%
    03:00 +4°C° 0 mm 2 mps 751 mmHg 31%
    04:00 +3°C° 0 mm 2 mps 751 mmHg 31%
    05:00 +3°C° 0 mm 2 mps 751 mmHg 31%
    06:00 +3°C° 0 mm 3 mps 752 mmHg 31%
    07:00 +3°C° 0 mm 4 mps 752 mmHg 31%
    08:00 +5°C° 0 mm 4 mps 752 mmHg 27%
    09:00 +6°C° 0 mm 4 mps 753 mmHg 24%
    10:00 +8°C° 0 mm 4 mps 753 mmHg 21%
    11:00 +10°C° 0 mm 4 mps 753 mmHg 21%
    12:00 +9°C° 0 mm 5 mps 753 mmHg 21%
    13:00 +10°C° 0 mm 5 mps 753 mmHg 21%
    14:00 +9°C° 0 mm 6 mps 753 mmHg 24%
    15:00 +7°C° 0 mm 6 mps 753 mmHg 27%
    16:00 +5°C° 0 mm 6 mps 753 mmHg 30%
    17:00 +5°C° 0 mm 6 mps 753 mmHg 33%
    18:00 +4°C° 0 mm 7 mps 753 mmHg 37%
    19:00 +3°C° 0 mm 7 mps 754 mmHg 40%
    20:00 +3°C° 0 mm 7 mps 754 mmHg 42%
    21:00 +2°C° 0 mm 6 mps 754 mmHg 45%
    22:00 +2°C° 0 mm 6 mps 754 mmHg 47%
    23:00 +1°C° 0 mm 6 mps 754 mmHg 49%

    Pasado mañana, 16 Noviembre, Sábado

    Tiempo Temperatura Precipitaciones Viento Presión Humedad
    00:00 +1°C° 0 mm 6 mps 754 mmHg 51%
    01:00 +1°C° 0 mm 6 mps 754 mmHg 52%
    02:00 -1°C° 0 mm 6 mps 754 mmHg 54%
    03:00 -1°C° 0 mm 6 mps 754 mmHg 56%
    04:00 -2°C° 0 mm 6 mps 755 mmHg 58%
    05:00 -1°C° 0 mm 5 mps 755 mmHg 57%
    06:00 -1°C° 0 mm 5 mps 755 mmHg 55%
    07:00 -1°C° 0 mm 5 mps 755 mmHg 54%
    08:00 +1°C° 0 mm 5 mps 755 mmHg 47%
    09:00 +3°C° 0 mm 5 mps 756 mmHg 40%
    10:00 +6°C° 0 mm 4 mps 756 mmHg 34%
    11:00 +6°C° 0 mm 5 mps 756 mmHg 32%
    12:00 +7°C° 0 mm 5 mps 756 mmHg 30%
    13:00 +8°C° 0 mm 5 mps 756 mmHg 28%
    14:00 +7°C° 0 mm 5 mps 756 mmHg 30%
    15:00 +6°C° 0 mm 5 mps 756 mmHg 33%
    16:00 +3°C° 0 mm 5 mps 756 mmHg 35%
    17:00 +3°C° 0 mm 5 mps 756 mmHg 35%
    18:00 +2°C° 0 mm 5 mps 756 mmHg 36%
    19:00 +1°C° 0 mm 4 mps 756 mmHg 36%
    20:00 +1°C° 0 mm 4 mps 756 mmHg 36%
    21:00 0°C° 0 mm 4 mps 756 mmHg 35%
    22:00 +1°C° 0 mm 3 mps 756 mmHg 35%
    23:00 +1°C° 0 mm 3 mps 756 mmHg 35%

    17 Noviembre, Domingo

    Tiempo Temperatura Precipitaciones Viento Presión Humedad
    00:00 0°C° 0 mm 3 mps 756 mmHg 36%
    01:00 0°C° 0 mm 3 mps 756 mmHg 36%
    02:00 +1°C° 0 mm 2 mps 756 mmHg 38%
    03:00 -1°C° 0 mm 2 mps 756 mmHg 39%
    04:00 -1°C° 0 mm 2 mps 756 mmHg 41%
    05:00 -1°C° 0 mm 2 mps 756 mmHg 41%
    06:00 -1°C° 0 mm 2 mps 756 mmHg 41%
    07:00 -1°C° 0 mm 2 mps 757 mmHg 41%
    08:00 +3°C° 0 mm 2 mps 757 mmHg 36%
    09:00 +6°C° 0 mm 1 mps 757 mmHg 31%
    10:00 +9°C° 0 mm 1 mps 757 mmHg 26%
    11:00 +10°C° 0 mm 1 mps 757 mmHg 25%
    12:00 +11°C° 0 mm 1 mps 757 mmHg 23%
    13:00 +12°C° 0 mm 2 mps 756 mmHg 21%
    14:00 +9°C° 0 mm 2 mps 756 mmHg 24%
    15:00 +8°C° 0 mm 2 mps 756 mmHg 27%
    16:00 +6°C° 0 mm 2 mps 756 mmHg 30%
    17:00 +6°C° 0 mm 2 mps 756 mmHg 32%
    18:00 +5°C° 0 mm 2 mps 756 mmHg 33%
    19:00 +4°C° 0 mm 2 mps 756 mmHg 34%
    20:00 +3°C° 0 mm 2 mps 755 mmHg 35%
    21:00 +3°C° 0 mm 2 mps 755 mmHg 35%
    22:00 +3°C° 0 mm 2 mps 755 mmHg 35%
    23:00 +3°C° 0 mm 1 mps 755 mmHg 36%

    18 Noviembre, Lunes

    Tiempo Temperatura Precipitaciones Viento Presión Humedad
    00:00 +3°C° 0 mm 1 mps 755 mmHg 36%
    01:00 +3°C° 0 mm 1 mps 754 mmHg 36%
    02:00 +2°C° 0 mm 1 mps 754 mmHg 37%
    03:00 +2°C° 0 mm 1 mps 754 mmHg 38%
    04:00 +2°C° 0 mm 1 mps 754 mmHg 39%
    05:00 +2°C° 0 mm 1 mps 754 mmHg 38%
    06:00 +2°C° 0 mm 1 mps 754 mmHg 38%
    07:00 +1°C° 0 mm 1 mps 754 mmHg 38%
    08:00 +4°C° 0 mm 1 mps 755 mmHg 33%
    09:00 +6°C° 0 mm 1 mps 755 mmHg 28%
    10:00 +8°C° 0 mm 1 mps 755 mmHg 24%
    11:00 +9°C° 0 mm 1 mps 755 mmHg 22%
    12:00 +10°C° 0 mm 1 mps 755 mmHg 21%
    13:00 +11°C° 0 mm 1 mps 754 mmHg 19%
    14:00 +9°C° 0 mm 1 mps 754 mmHg 22%
    15:00 +8°C° 0 mm 1 mps 754 mmHg 25%
    16:00 +6°C° 0 mm 1 mps 753 mmHg 28%
    17:00 +6°C° 0 mm 1 mps 753 mmHg 28%
    18:00 +5°C° 0 mm 1 mps 753 mmHg 29%
    19:00 +5°C° 0 mm 1 mps 753 mmHg 29%
    20:00 +5°C° 0 mm 1 mps 753 mmHg 30%
    21:00 +4°C° 0 mm 1 mps 753 mmHg 30%
    22:00 +4°C° 0 mm 1 mps 753 mmHg 31%
    23:00 +3°C° 0 mm 1 mps 753 mmHg 32%

    19 Noviembre, Martes

    Tiempo Temperatura Precipitaciones Viento Presión Humedad
    00:00 +3°C° 0 mm 1 mps 752 mmHg 32%
    01:00 +3°C° 0 mm 1 mps 752 mmHg 33%
    02:00 +3°C° 0 mm 1 mps 752 mmHg 32%
    03:00 +2°C° 0 mm 1 mps 751 mmHg 32%
    04:00 +2°C° 0 mm 1 mps 751 mmHg 32%
    05:00 +2°C° 0 mm 1 mps 751 mmHg 32%
    06:00 +2°C° 0 mm 1 mps 751 mmHg 31%
    07:00 +1°C° 0 mm 2 mps 751 mmHg 31%
    08:00 +4°C° 0 mm 1 mps 751 mmHg 28%
    09:00 +6°C° 0 mm 1 mps 751 mmHg 24%
    10:00 +8°C° 0 mm 1 mps 751 mmHg 21%
    11:00 +9°C° 0 mm 1 mps 751 mmHg 22%
    12:00 +9°C° 0 mm 2 mps 750 mmHg 23%
    13:00 +10°C° 0 mm 2 mps 750 mmHg 25%
    14:00 +8°C° 0 mm 2 mps 750 mmHg 28%
    15:00 +7°C° 0 mm 2 mps 749 mmHg 31%
    16:00 +6°C° 0 mm 2 mps 749 mmHg 34%
    17:00 +5°C° 0 mm 2 mps 749 mmHg 36%
    18:00 +5°C° 0 mm 1 mps 749 mmHg 38%
    19:00 +5°C° 0 mm 1 mps 749 mmHg 40%
    20:00 +4°C° 0 mm 1 mps 748 mmHg 41%
    21:00 +4°C° 0 mm 1 mps 748 mmHg 42%
    22:00 +4°C° 0 mm 1 mps 748 mmHg 43%
    23:00 +4°C° 0 mm 1 mps 748 mmHg 45%
    Mostrar más